loading
DOY 175 | 2024-06-23T12:11:57Z

STARLINK-31960, 59931

Orbit data source: Space-Track

STARLINK-31960, 59931 is a payload satellite owned by SpaceX/Seattle (US) in LEO that was launched on Sat, 01 Jun 2024 UTC via a Falcon 9 launch vehicle from the Air Force Eastern Test Range (AFETR). Payloads include a variety of satellites, spacecraft, and rockets equipped with specific instruments for various scientific and technological missions. These include communications satellites like Starlink; space stations such as the ISS; scientific satellites like the Hubble; Earth observation satellites from companies like Planet Labs, Umbra, and HawkEye 360; GPS; miniature CubeSats for education and research; and military/defense satellites.

Loading next visibility...
Loading greatness...
STARLINK-31960 details
NORAD ID59931
COSPAR ID
2024-106K
Orbit
LEO
Last TLE update6 hours ago
Origin
Flag of USSpaceX/Seattle (US)
ManufacturerSpaceX/Seattle
BusStarlink V2M
MotorUnknown
Mass750 kg wet, ~700 kg dry
Launch date (UTC)
2024-06-01 (3 weeks ago)
Launch vehicle
Falcon 9
Launch site
Air Force Eastern Test Range (AFETR)
Object type
Payload
Rocket body
Debris
Radar Cross SectionLarge (>1 m²)
Predictive object data (real-time)
Latitude-41.63946°
Longitude178.43672°
Altitude392.775 km
Speed7.675 km/s
Apparent Right ascension11h 41m 05s
Apparent Declination-40° 44' 02"
Sunlit
Object is in daylight
Predictive observer data (real-time)
Local Sidereal Time23:20:06
Azimuth256.752° W
Elevation-85.919°
Doppler factor1
Orbital elements
Apogee381.084 km
Perigee379.393 km
Semi-major axis6,758.376 km
Eccentricity0.0001251
Inclination42.9995°
RAAN290.4213°
Arg. of periapsis265.2084°
True anomaly336.10139°
Mean anomaly336.1072°
Mean motion3.90643 °/min
BSTAR-0.020221
Period92.16 mins
Definitive object data (Epoch: 2024-06-23T06:00:00.999Z)
Latitude-36.92108°
Longitude161.7682°
Altitude388.25 km
Speed7.678 km/s
True Right ascension10h 54m 41s
True Declination-36° 44' 49"
Sunlit
Object was in daylight at TLE epoch
TLE from 6 hours ago
0 STARLINK-31960
1 59931U 24106K   24175.25001157 -.01678271  00000-0 -20221-1 0  9992
2 59931  42.9995 290.4213 0001251 265.2084 336.1072 15.63254484  4664
Epoch: 2024-06-23T06:00Z
No data available

STARLINK-31960 Visibility forecast

Observer location: 39.9160978°, -105.1181434, 0m alt.

STARLINK-31960 is not visible in the next 10 days
Span
Click to sort rows by Start time (UTC) header in descending order
Start Az.
Max El. time (UTC)
Max El. Az.
Max El.
End time (UTC)
End Az.